owner,sensor,date,latitude,longitude,vertical_datum,mass_concentration_of_oxygen_in_sea_water,qcFlag 
SCCF RECON,ioos:station:SCCF:11:1,2019-02-01T05:00:00Z,26.4679,-82.0631,1.11,6.97,1111122 
SCCF RECON,ioos:station:SCCF:11:1,2019-02-01T06:00:00Z,26.4679,-82.0631,1.01,7.31,1111122 
SCCF RECON,ioos:station:SCCF:11:1,2019-02-01T07:00:00Z,26.4679,-82.0631,0.869,7.2,1111122 
SCCF RECON,ioos:station:SCCF:11:1,2019-02-01T08:00:00Z,26.4679,-82.0631,0.745,7.06,1111122 
SCCF RECON,ioos:station:SCCF:11:1,2019-02-01T09:00:00Z,26.4679,-82.0631,0.652,6.91,1111122 
SCCF RECON,ioos:station:SCCF:11:1,2019-02-01T10:00:00Z,26.4679,-82.0631,0.58,6.74,1111122 
SCCF RECON,ioos:station:SCCF:11:1,2019-02-01T11:00:00Z,26.4679,-82.0631,0.56,6.63,1111122 
SCCF RECON,ioos:station:SCCF:11:1,2019-02-01T12:00:00Z,26.4679,-82.0631,0.65,6.42,1111122 
SCCF RECON,ioos:station:SCCF:11:1,2019-02-01T13:00:00Z,26.4679,-82.0631,0.789,6.64,1111122 
SCCF RECON,ioos:station:SCCF:11:1,2019-02-01T14:00:00Z,26.4679,-82.0631,0.906,6.82,1111122 
SCCF RECON,ioos:station:SCCF:11:1,2019-02-01T15:00:00Z,26.4679,-82.0631,1.01,6.82,1111122 
SCCF RECON,ioos:station:SCCF:11:1,2019-02-01T16:00:00Z,26.4679,-82.0631,1.101,6.96,1111122 
SCCF RECON,ioos:station:SCCF:11:1,2019-02-01T17:00:00Z,26.4679,-82.0631,1.148,7.0,1111122 
SCCF RECON,ioos:station:SCCF:11:1,2019-02-01T18:00:00Z,26.4679,-82.0631,1.174,6.9,1111122 
SCCF RECON,ioos:station:SCCF:11:1,2019-02-01T19:00:00Z,26.4679,-82.0631,1.159,7.12,1111122 
SCCF RECON,ioos:station:SCCF:11:1,2019-02-01T20:00:00Z,26.4679,-82.0631,1.063,7.25,1111122 
SCCF RECON,ioos:station:SCCF:11:1,2019-02-01T21:00:00Z,26.4679,-82.0631,1.031,7.58,1111122 
SCCF RECON,ioos:station:SCCF:11:1,2019-02-01T22:00:00Z,26.4679,-82.0631,1.046,7.77,1111122 
SCCF RECON,ioos:station:SCCF:11:1,2019-02-01T23:00:00Z,26.4679,-82.0631,1.109,7.45,1111122 
SCCF RECON,ioos:station:SCCF:11:1,2019-02-02T05:00:00Z,26.4679,-82.0631,1.25,7.2,1111122 
SCCF RECON,ioos:station:SCCF:11:1,2019-02-02T06:00:00Z,26.4679,-82.0631,1.18,7.14,1111122 
SCCF RECON,ioos:station:SCCF:11:1,2019-02-02T07:00:00Z,26.4679,-82.0631,1.041,7.09,1111122 
SCCF RECON,ioos:station:SCCF:11:1,2019-02-02T08:00:00Z,26.4679,-82.0631,0.896,6.96,1111122 
SCCF RECON,ioos:station:SCCF:11:1,2019-02-02T09:00:00Z,26.4679,-82.0631,0.762,6.92,1111122 
SCCF RECON,ioos:station:SCCF:11:1,2019-02-02T10:00:00Z,26.4679,-82.0631,0.639,6.8,1111122 
SCCF RECON,ioos:station:SCCF:11:1,2019-02-02T11:00:00Z,26.4679,-82.0631,0.569,6.7,1111122 
SCCF RECON,ioos:station:SCCF:11:1,2019-02-02T12:00:00Z,26.4679,-82.0631,0.57,6.33,1111122 
SCCF RECON,ioos:station:SCCF:11:1,2019-02-02T13:00:00Z,26.4679,-82.0631,0.689,6.38,1111122 
SCCF RECON,ioos:station:SCCF:11:1,2019-02-02T14:00:00Z,26.4679,-82.0631,0.85,6.59,1111122 
SCCF RECON,ioos:station:SCCF:11:1,2019-02-02T15:00:00Z,26.4679,-82.0631,0.97,6.77,1111122 
SCCF RECON,ioos:station:SCCF:11:1,2019-02-02T16:00:00Z,26.4679,-82.0631,1.065,6.79,1111122 
SCCF RECON,ioos:station:SCCF:11:1,2019-02-02T17:00:00Z,26.4679,-82.0631,1.16,7.09,1111122 
SCCF RECON,ioos:station:SCCF:11:1,2019-02-02T18:00:00Z,26.4679,-82.0631,1.19,7.14,1111122 
SCCF RECON,ioos:station:SCCF:11:1,2019-02-02T19:00:00Z,26.4679,-82.0631,1.159,6.94,1111122 
SCCF RECON,ioos:station:SCCF:11:1,2019-02-02T20:00:00Z,26.4679,-82.0631,1.08,7.47,1111122 
SCCF RECON,ioos:station:SCCF:11:1,2019-02-02T21:00:00Z,26.4679,-82.0631,1.021,7.52,1111122 
SCCF RECON,ioos:station:SCCF:11:1,2019-02-02T22:00:00Z,26.4679,-82.0631,1.001,7.29,1111122 
SCCF RECON,ioos:station:SCCF:11:1,2019-02-02T23:00:00Z,26.4679,-82.0631,1.013,6.72,1111122 
SCCF RECON,ioos:station:SCCF:11:1,2019-02-03T05:00:00Z,26.4679,-82.0631,1.34,6.62,1111122 
SCCF RECON,ioos:station:SCCF:11:1,2019-02-03T06:00:00Z,26.4679,-82.0631,1.271,6.89,1111122 
SCCF RECON,ioos:station:SCCF:11:1,2019-02-03T07:00:00Z,26.4679,-82.0631,1.14,7.15,1111122 
SCCF RECON,ioos:station:SCCF:11:1,2019-02-03T08:00:00Z,26.4679,-82.0631,0.981,6.75,1111122 
SCCF RECON,ioos:station:SCCF:11:1,2019-02-03T09:00:00Z,26.4679,-82.0631,0.84,6.73,1111122 
SCCF RECON,ioos:station:SCCF:11:1,2019-02-03T10:00:00Z,26.4679,-82.0631,0.71,6.61,1111122 
SCCF RECON,ioos:station:SCCF:11:1,2019-02-03T11:00:00Z,26.4679,-82.0631,0.609,6.51,1111122 
SCCF RECON,ioos:station:SCCF:11:1,2019-02-03T12:00:00Z,26.4679,-82.0631,0.549,6.32,1111122 
SCCF RECON,ioos:station:SCCF:11:1,2019-02-03T13:00:00Z,26.4679,-82.0631,0.6,6.24,1111122 
SCCF RECON,ioos:station:SCCF:11:1,2019-02-03T14:00:00Z,26.4679,-82.0631,0.75,6.24,1111122 
SCCF RECON,ioos:station:SCCF:11:1,2019-02-03T15:00:00Z,26.4679,-82.0631,0.911,6.64,1111122 
SCCF RECON,ioos:station:SCCF:11:1,2019-02-03T16:00:00Z,26.4679,-82.0631,1.021,6.66,1111122 
SCCF RECON,ioos:station:SCCF:11:1,2019-02-03T17:00:00Z,26.4679,-82.0631,1.118,6.74,1111122 
SCCF RECON,ioos:station:SCCF:11:1,2019-02-03T18:00:00Z,26.4679,-82.0631,1.175,6.53,1111122 
SCCF RECON,ioos:station:SCCF:11:1,2019-02-03T19:00:00Z,26.4679,-82.0631,1.148,6.7,1111122 
SCCF RECON,ioos:station:SCCF:11:1,2019-02-03T20:00:00Z,26.4679,-82.0631,1.079,7.07,1111122 
SCCF RECON,ioos:station:SCCF:11:1,2019-02-03T21:00:00Z,26.4679,-82.0631,0.997,7.36,1111122 
SCCF RECON,ioos:station:SCCF:11:1,2019-02-03T22:00:00Z,26.4679,-82.0631,0.943,7.47,1111122 
SCCF RECON,ioos:station:SCCF:11:1,2019-02-03T23:00:00Z,26.4679,-82.0631,0.93,7.44,1111122 
SCCF RECON,ioos:station:SCCF:11:1,2019-02-04T05:00:00Z,26.4679,-82.0631,1.379,6.37,1111122 
SCCF RECON,ioos:station:SCCF:11:1,2019-02-04T06:00:00Z,26.4679,-82.0631,1.328,6.55,1111122 
SCCF RECON,ioos:station:SCCF:11:1,2019-02-04T07:00:00Z,26.4679,-82.0631,1.21,6.44,1111122 
SCCF RECON,ioos:station:SCCF:11:1,2019-02-04T08:00:00Z,26.4679,-82.0631,1.055,6.16,1111122 
SCCF RECON,ioos:station:SCCF:11:1,2019-02-04T09:00:00Z,26.4679,-82.0631,0.919,6.02,1111122 
SCCF RECON,ioos:station:SCCF:11:1,2019-02-04T10:00:00Z,26.4679,-82.0631,0.785,6.01,1111122 
SCCF RECON,ioos:station:SCCF:11:1,2019-02-04T11:00:00Z,26.4679,-82.0631,0.661,5.88,1111122 
SCCF RECON,ioos:station:SCCF:11:1,2019-02-04T12:00:00Z,26.4679,-82.0631,0.576,5.82,1111122 
SCCF RECON,ioos:station:SCCF:11:1,2019-02-04T13:00:00Z,26.4679,-82.0631,0.553,5.91,1111122 
SCCF RECON,ioos:station:SCCF:11:1,2019-02-04T14:00:00Z,26.4679,-82.0631,0.66,5.48,1111122 
SCCF RECON,ioos:station:SCCF:11:1,2019-02-04T15:00:00Z,26.4679,-82.0631,0.82,5.79,1111122 
SCCF RECON,ioos:station:SCCF:11:1,2019-02-04T16:00:00Z,26.4679,-82.0631,0.968,6.21,1111122 
SCCF RECON,ioos:station:SCCF:11:1,2019-02-04T17:00:00Z,26.4679,-82.0631,1.078,6.17,1111122 
SCCF RECON,ioos:station:SCCF:11:1,2019-02-04T18:00:00Z,26.4679,-82.0631,1.15,6.34,1111122 
SCCF RECON,ioos:station:SCCF:11:1,2019-02-04T19:00:00Z,26.4679,-82.0631,1.163,6.56,1111122 
SCCF RECON,ioos:station:SCCF:11:1,2019-02-04T20:00:00Z,26.4679,-82.0631,1.11,6.58,1111122 
SCCF RECON,ioos:station:SCCF:11:1,2019-02-04T21:00:00Z,26.4679,-82.0631,1.029,6.82,1111122 
SCCF RECON,ioos:station:SCCF:11:1,2019-02-04T22:00:00Z,26.4679,-82.0631,0.979,6.92,1111122 
SCCF RECON,ioos:station:SCCF:11:1,2019-02-04T23:00:00Z,26.4679,-82.0631,0.95,7.12,1111122 
SCCF RECON,ioos:station:SCCF:11:1,2019-02-05T05:00:00Z,26.4679,-82.0631,1.36,6.69,1111122 
SCCF RECON,ioos:station:SCCF:11:1,2019-02-05T06:00:00Z,26.4679,-82.0631,1.37,6.43,1111122 
SCCF RECON,ioos:station:SCCF:11:1,2019-02-05T07:00:00Z,26.4679,-82.0631,1.28,6.45,1111122 
SCCF RECON,ioos:station:SCCF:11:1,2019-02-05T08:00:00Z,26.4679,-82.0631,1.11,6.19,1111122 
SCCF RECON,ioos:station:SCCF:11:1,2019-02-05T09:00:00Z,26.4679,-82.0631,0.96,6.01,1111122 
SCCF RECON,ioos:station:SCCF:11:1,2019-02-05T10:00:00Z,26.4679,-82.0631,0.827,5.93,1111122 
SCCF RECON,ioos:station:SCCF:11:1,2019-02-05T11:00:00Z,26.4679,-82.0631,0.71,5.83,1111122 
SCCF RECON,ioos:station:SCCF:11:1,2019-02-05T12:00:00Z,26.4679,-82.0631,0.602,5.75,1111122 
SCCF RECON,ioos:station:SCCF:11:1,2019-02-05T13:00:00Z,26.4679,-82.0631,0.547,5.66,1111122 
SCCF RECON,ioos:station:SCCF:11:1,2019-02-05T14:00:00Z,26.4679,-82.0631,0.605,5.46,1111122 
SCCF RECON,ioos:station:SCCF:11:1,2019-02-05T15:00:00Z,26.4679,-82.0631,0.764,5.72,1111122 
SCCF RECON,ioos:station:SCCF:11:1,2019-02-05T16:00:00Z,26.4679,-82.0631,0.93,6.02,1111122 
SCCF RECON,ioos:station:SCCF:11:1,2019-02-05T17:00:00Z,26.4679,-82.0631,1.059,5.95,1111122 
SCCF RECON,ioos:station:SCCF:11:1,2019-02-05T18:00:00Z,26.4679,-82.0631,1.144,6.1,1111122 
SCCF RECON,ioos:station:SCCF:11:1,2019-02-05T19:00:00Z,26.4679,-82.0631,1.196,6.68,1111122 
SCCF RECON,ioos:station:SCCF:11:1,2019-02-05T20:00:00Z,26.4679,-82.0631,1.173,6.23,1111122 
SCCF RECON,ioos:station:SCCF:11:1,2019-02-05T21:00:00Z,26.4679,-82.0631,1.072,6.7,1111122 
SCCF RECON,ioos:station:SCCF:11:1,2019-02-05T22:00:00Z,26.4679,-82.0631,0.981,6.96,1111122 
SCCF RECON,ioos:station:SCCF:11:1,2019-02-05T23:00:00Z,26.4679,-82.0631,0.949,7.01,1111122 
SCCF RECON,ioos:station:SCCF:11:1,2019-02-06T05:00:00Z,26.4679,-82.0631,1.351,6.09,1111122 
SCCF RECON,ioos:station:SCCF:11:1,2019-02-06T06:00:00Z,26.4679,-82.0631,1.38,5.93,1111122 
SCCF RECON,ioos:station:SCCF:11:1,2019-02-06T07:00:00Z,26.4679,-82.0631,1.35,6.07,1111122 
SCCF RECON,ioos:station:SCCF:11:1,2019-02-06T08:00:00Z,26.4679,-82.0631,1.231,5.98,1111122 
SCCF RECON,ioos:station:SCCF:11:1,2019-02-06T09:00:00Z,26.4679,-82.0631,1.074,5.66,1111122 
SCCF RECON,ioos:station:SCCF:11:1,2019-02-06T10:00:00Z,26.4679,-82.0631,0.921,5.54,1111122 
SCCF RECON,ioos:station:SCCF:11:1,2019-02-06T11:00:00Z,26.4679,-82.0631,0.798,5.38,1111122 
SCCF RECON,ioos:station:SCCF:11:1,2019-02-06T12:00:00Z,26.4679,-82.0631,0.68,5.21,1111122 
SCCF RECON,ioos:station:SCCF:11:1,2019-02-06T13:00:00Z,26.4679,-82.0631,0.591,5.04,1111122 
SCCF RECON,ioos:station:SCCF:11:1,2019-02-06T14:00:00Z,26.4679,-82.0631,0.581,4.97,1111122 
SCCF RECON,ioos:station:SCCF:11:1,2019-02-06T15:00:00Z,26.4679,-82.0631,0.698,5.35,1111122 
SCCF RECON,ioos:station:SCCF:11:1,2019-02-06T16:00:00Z,26.4679,-82.0631,0.867,5.66,1111122 
SCCF RECON,ioos:station:SCCF:11:1,2019-02-06T17:00:00Z,26.4679,-82.0631,1.008,5.91,1111122 
SCCF RECON,ioos:station:SCCF:11:1,2019-02-06T18:00:00Z,26.4679,-82.0631,1.09,5.87,1111122 
SCCF RECON,ioos:station:SCCF:11:1,2019-02-06T19:00:00Z,26.4679,-82.0631,1.177,6.28,1111122 
SCCF RECON,ioos:station:SCCF:11:1,2019-02-06T20:00:00Z,26.4679,-82.0631,1.205,6.15,1111122 
SCCF RECON,ioos:station:SCCF:11:1,2019-02-06T21:00:00Z,26.4679,-82.0631,1.152,6.19,1111122 
SCCF RECON,ioos:station:SCCF:11:1,2019-02-06T23:00:00Z,26.4679,-82.0631,0.98,6.96,1111122 
SCCF RECON,ioos:station:SCCF:11:1,2019-02-07T05:00:00Z,26.4679,-82.0631,1.296,5.52,1111122 
SCCF RECON,ioos:station:SCCF:11:1,2019-02-07T06:00:00Z,26.4679,-82.0631,1.34,5.65,1111122 
SCCF RECON,ioos:station:SCCF:11:1,2019-02-07T07:00:00Z,26.4679,-82.0631,1.36,5.26,1111122 
SCCF RECON,ioos:station:SCCF:11:1,2019-02-07T08:00:00Z,26.4679,-82.0631,1.27,5.86,1111122 
SCCF RECON,ioos:station:SCCF:11:1,2019-02-07T09:00:00Z,26.4679,-82.0631,1.14,5.63,1111122 
SCCF RECON,ioos:station:SCCF:11:1,2019-02-07T10:00:00Z,26.4679,-82.0631,0.994,5.34,1111122 
SCCF RECON,ioos:station:SCCF:11:1,2019-02-07T11:00:00Z,26.4679,-82.0631,0.86,5.26,1111122 
SCCF RECON,ioos:station:SCCF:11:1,2019-02-07T12:00:00Z,26.4679,-82.0631,0.758,5.05,1111122 
SCCF RECON,ioos:station:SCCF:11:1,2019-02-07T13:00:00Z,26.4679,-82.0631,0.656,4.87,1111122 
SCCF RECON,ioos:station:SCCF:11:1,2019-02-07T14:00:00Z,26.4679,-82.0631,0.601,4.73,1111122 
SCCF RECON,ioos:station:SCCF:11:1,2019-02-07T15:00:00Z,26.4679,-82.0631,0.64,4.75,1111122 
SCCF RECON,ioos:station:SCCF:11:1,2019-02-07T16:00:00Z,26.4679,-82.0631,0.79,5.31,1111122 
SCCF RECON,ioos:station:SCCF:11:1,2019-02-07T17:00:00Z,26.4679,-82.0631,0.956,5.7,1111122 
SCCF RECON,ioos:station:SCCF:11:1,2019-02-07T18:00:00Z,26.4679,-82.0631,1.068,5.74,1111122 
SCCF RECON,ioos:station:SCCF:11:1,2019-02-07T19:00:00Z,26.4679,-82.0631,1.145,5.71,1111122 
SCCF RECON,ioos:station:SCCF:11:1,2019-02-07T20:00:00Z,26.4679,-82.0631,1.19,5.73,1111122 
SCCF RECON,ioos:station:SCCF:11:1,2019-02-07T21:00:00Z,26.4679,-82.0631,1.16,5.91,1111122 
SCCF RECON,ioos:station:SCCF:11:1,2019-02-07T22:00:00Z,26.4679,-82.0631,1.1,6.54,1111122 
SCCF RECON,ioos:station:SCCF:11:1,2019-02-07T23:00:00Z,26.4679,-82.0631,1.009,6.97,1111122 
SCCF RECON,ioos:station:SCCF:11:1,2019-02-08T05:00:00Z,26.4679,-82.0631,1.25,6.15,1111122 
SCCF RECON,ioos:station:SCCF:11:1,2019-02-08T06:00:00Z,26.4679,-82.0631,1.34,5.78,1111122 
SCCF RECON,ioos:station:SCCF:11:1,2019-02-08T07:00:00Z,26.4679,-82.0631,1.36,5.39,1111122 
SCCF RECON,ioos:station:SCCF:11:1,2019-02-08T08:00:00Z,26.4679,-82.0631,1.33,5.82,1111122 
SCCF RECON,ioos:station:SCCF:11:1,2019-02-08T09:00:00Z,26.4679,-82.0631,1.23,5.75,1111122 
SCCF RECON,ioos:station:SCCF:11:1,2019-02-08T10:00:00Z,26.4679,-82.0631,1.093,5.31,1111122 
SCCF RECON,ioos:station:SCCF:11:1,2019-02-08T11:00:00Z,26.4679,-82.0631,0.961,5.06,1111122 
SCCF RECON,ioos:station:SCCF:11:1,2019-02-08T12:00:00Z,26.4679,-82.0631,0.853,5.04,1111122 
SCCF RECON,ioos:station:SCCF:11:1,2019-02-08T13:00:00Z,26.4679,-82.0631,0.76,5.52,1111122 
SCCF RECON,ioos:station:SCCF:11:1,2019-02-08T14:00:00Z,26.4679,-82.0631,0.69,5.47,1111122 
SCCF RECON,ioos:station:SCCF:11:1,2019-02-08T15:00:00Z,26.4679,-82.0631,0.68,5.66,1111122 
SCCF RECON,ioos:station:SCCF:11:1,2019-02-08T16:00:00Z,26.4679,-82.0631,0.767,5.89,1111122 
SCCF RECON,ioos:station:SCCF:11:1,2019-02-08T17:00:00Z,26.4679,-82.0631,0.926,6.54,1111122 
SCCF RECON,ioos:station:SCCF:11:1,2019-02-08T18:00:00Z,26.4679,-82.0631,1.068,6.45,1111122 
SCCF RECON,ioos:station:SCCF:11:1,2019-02-08T19:00:00Z,26.4679,-82.0631,1.148,6.21,1111122 
SCCF RECON,ioos:station:SCCF:11:1,2019-02-08T20:00:00Z,26.4679,-82.0631,1.182,6.52,1111122 
SCCF RECON,ioos:station:SCCF:11:1,2019-02-08T21:00:00Z,26.4679,-82.0631,1.161,6.91,1111122 
SCCF RECON,ioos:station:SCCF:11:1,2019-02-08T22:00:00Z,26.4679,-82.0631,1.076,6.72,1111122 
SCCF RECON,ioos:station:SCCF:11:1,2019-02-08T23:00:00Z,26.4679,-82.0631,0.98,6.81,1111122 
SCCF RECON,ioos:station:SCCF:11:1,2019-02-09T05:00:00Z,26.4679,-82.0631,1.02,5.88,1111122 
SCCF RECON,ioos:station:SCCF:11:1,2019-02-09T06:00:00Z,26.4679,-82.0631,1.12,6.04,1111122 
SCCF RECON,ioos:station:SCCF:11:1,2019-02-09T07:00:00Z,26.4679,-82.0631,1.18,5.67,1111122 
SCCF RECON,ioos:station:SCCF:11:1,2019-02-09T08:00:00Z,26.4679,-82.0631,1.198,5.73,1111122 
SCCF RECON,ioos:station:SCCF:11:1,2019-02-09T09:00:00Z,26.4679,-82.0631,1.17,6.03,1111122 
SCCF RECON,ioos:station:SCCF:11:1,2019-02-09T10:00:00Z,26.4679,-82.0631,1.061,6.25,1111122 
SCCF RECON,ioos:station:SCCF:11:1,2019-02-09T11:00:00Z,26.4679,-82.0631,0.95,5.75,1111122 
SCCF RECON,ioos:station:SCCF:11:1,2019-02-09T12:00:00Z,26.4679,-82.0631,0.86,5.54,1111122 
SCCF RECON,ioos:station:SCCF:11:1,2019-02-09T13:00:00Z,26.4679,-82.0631,0.777,5.29,1111122 
SCCF RECON,ioos:station:SCCF:11:1,2019-02-09T14:00:00Z,26.4679,-82.0631,0.688,5.21,1111122 
SCCF RECON,ioos:station:SCCF:11:1,2019-02-09T15:00:00Z,26.4679,-82.0631,0.65,5.16,1111122 
SCCF RECON,ioos:station:SCCF:11:1,2019-02-09T16:00:00Z,26.4679,-82.0631,0.697,5.68,1111122 
SCCF RECON,ioos:station:SCCF:11:1,2019-02-09T17:00:00Z,26.4679,-82.0631,0.809,5.79,1111122 
SCCF RECON,ioos:station:SCCF:11:1,2019-02-09T18:00:00Z,26.4679,-82.0631,0.933,6.03,1111122 
SCCF RECON,ioos:station:SCCF:11:1,2019-02-09T19:00:00Z,26.4679,-82.0631,1.051,6.12,1111122 
SCCF RECON,ioos:station:SCCF:11:1,2019-02-09T20:00:00Z,26.4679,-82.0631,1.14,6.15,1111122 
SCCF RECON,ioos:station:SCCF:11:1,2019-02-09T21:00:00Z,26.4679,-82.0631,1.17,6.16,1111122 
SCCF RECON,ioos:station:SCCF:11:1,2019-02-09T22:00:00Z,26.4679,-82.0631,1.129,6.27,1111122 
SCCF RECON,ioos:station:SCCF:11:1,2019-02-09T23:00:00Z,26.4679,-82.0631,1.052,6.3,1111122 
SCCF RECON,ioos:station:SCCF:11:1,2019-02-10T05:00:00Z,26.4679,-82.0631,0.851,5.62,1111122 
SCCF RECON,ioos:station:SCCF:11:1,2019-02-10T06:00:00Z,26.4679,-82.0631,0.96,5.58,1111122 
SCCF RECON,ioos:station:SCCF:11:1,2019-02-10T07:00:00Z,26.4679,-82.0631,1.06,5.76,1111122 
SCCF RECON,ioos:station:SCCF:11:1,2019-02-10T08:00:00Z,26.4679,-82.0631,1.121,5.72,1111122 
SCCF RECON,ioos:station:SCCF:11:1,2019-02-10T09:00:00Z,26.4679,-82.0631,1.164,5.53,1111122 
SCCF RECON,ioos:station:SCCF:11:1,2019-02-10T10:00:00Z,26.4679,-82.0631,1.11,5.76,1111122 
SCCF RECON,ioos:station:SCCF:11:1,2019-02-10T11:00:00Z,26.4679,-82.0631,1.01,5.64,1111122 
SCCF RECON,ioos:station:SCCF:11:1,2019-02-10T12:00:00Z,26.4679,-82.0631,0.932,5.45,1111122 
SCCF RECON,ioos:station:SCCF:11:1,2019-02-10T13:00:00Z,26.4679,-82.0631,0.864,5.23,1111122 
SCCF RECON,ioos:station:SCCF:11:1,2019-02-10T14:00:00Z,26.4679,-82.0631,0.786,5.16,1111122 
SCCF RECON,ioos:station:SCCF:11:1,2019-02-10T15:00:00Z,26.4679,-82.0631,0.712,5.03,1111122 
SCCF RECON,ioos:station:SCCF:11:1,2019-02-10T16:00:00Z,26.4679,-82.0631,0.73,5.29,1111122 
SCCF RECON,ioos:station:SCCF:11:1,2019-02-10T17:00:00Z,26.4679,-82.0631,0.821,5.99,1111122 
SCCF RECON,ioos:station:SCCF:11:1,2019-02-10T18:00:00Z,26.4679,-82.0631,0.97,6.23,1111122 
SCCF RECON,ioos:station:SCCF:11:1,2019-02-10T19:00:00Z,26.4679,-82.0631,1.091,6.18,1111122 
SCCF RECON,ioos:station:SCCF:11:1,2019-02-10T20:00:00Z,26.4679,-82.0631,1.18,6.18,1111122 
SCCF RECON,ioos:station:SCCF:11:1,2019-02-10T21:00:00Z,26.4679,-82.0631,1.241,6.18,1111122 
SCCF RECON,ioos:station:SCCF:11:1,2019-02-10T22:00:00Z,26.4679,-82.0631,1.279,6.35,1111122 
SCCF RECON,ioos:station:SCCF:11:1,2019-02-10T23:00:00Z,26.4679,-82.0631,1.24,6.61,1111122 
SCCF RECON,ioos:station:SCCF:11:1,2019-02-11T05:00:00Z,26.4679,-82.0631,0.88,5.95,1111122 
SCCF RECON,ioos:station:SCCF:11:1,2019-02-11T06:00:00Z,26.4679,-82.0631,0.961,6.17,1111122 
SCCF RECON,ioos:station:SCCF:11:1,2019-02-11T07:00:00Z,26.4679,-82.0631,1.062,6.03,1111122 
SCCF RECON,ioos:station:SCCF:11:1,2019-02-11T08:00:00Z,26.4679,-82.0631,1.13,6.08,1111122 
SCCF RECON,ioos:station:SCCF:11:1,2019-02-11T09:00:00Z,26.4679,-82.0631,1.189,5.92,1111122 
SCCF RECON,ioos:station:SCCF:11:1,2019-02-11T10:00:00Z,26.4679,-82.0631,1.2,5.79,1111122 
SCCF RECON,ioos:station:SCCF:11:1,2019-02-11T11:00:00Z,26.4679,-82.0631,1.18,5.85,1111122 
SCCF RECON,ioos:station:SCCF:11:1,2019-02-11T12:00:00Z,26.4679,-82.0631,1.123,5.79,1111122 
SCCF RECON,ioos:station:SCCF:11:1,2019-02-11T13:00:00Z,26.4679,-82.0631,1.03,5.59,1111122 
SCCF RECON,ioos:station:SCCF:11:1,2019-02-11T14:00:00Z,26.4679,-82.0631,0.955,5.4,1111122 
SCCF RECON,ioos:station:SCCF:11:1,2019-02-11T15:00:00Z,26.4679,-82.0631,0.891,5.49,1111122 
SCCF RECON,ioos:station:SCCF:11:1,2019-02-11T16:00:00Z,26.4679,-82.0631,0.849,5.37,1111122 
SCCF RECON,ioos:station:SCCF:11:1,2019-02-11T17:00:00Z,26.4679,-82.0631,0.889,5.69,1111122 
SCCF RECON,ioos:station:SCCF:11:1,2019-02-11T18:00:00Z,26.4679,-82.0631,0.98,6.62,1111122 
SCCF RECON,ioos:station:SCCF:11:1,2019-02-11T19:00:00Z,26.4679,-82.0631,1.076,6.44,1111122 
SCCF RECON,ioos:station:SCCF:11:1,2019-02-11T20:00:00Z,26.4679,-82.0631,1.164,6.42,1111122 
SCCF RECON,ioos:station:SCCF:11:1,2019-02-11T21:00:00Z,26.4679,-82.0631,1.23,6.63,1111122 
SCCF RECON,ioos:station:SCCF:11:1,2019-02-11T22:00:00Z,26.4679,-82.0631,1.279,6.3,1111122 
SCCF RECON,ioos:station:SCCF:11:1,2019-02-11T23:00:00Z,26.4679,-82.0631,1.27,6.18,1111122 
SCCF RECON,ioos:station:SCCF:11:1,2019-02-12T05:00:00Z,26.4679,-82.0631,0.81,6.02,1111122 
SCCF RECON,ioos:station:SCCF:11:1,2019-02-12T06:00:00Z,26.4679,-82.0631,0.854,5.87,1111122 
SCCF RECON,ioos:station:SCCF:11:1,2019-02-12T07:00:00Z,26.4679,-82.0631,0.93,5.65,1111122 
SCCF RECON,ioos:station:SCCF:11:1,2019-02-12T08:00:00Z,26.4679,-82.0631,1.01,5.81,1111122 
SCCF RECON,ioos:station:SCCF:11:1,2019-02-12T09:00:00Z,26.4679,-82.0631,1.074,5.88,1111122 
SCCF RECON,ioos:station:SCCF:11:1,2019-02-12T10:00:00Z,26.4679,-82.0631,1.13,5.81,1111122 
SCCF RECON,ioos:station:SCCF:11:1,2019-02-12T11:00:00Z,26.4679,-82.0631,1.18,5.39,1111122 
SCCF RECON,ioos:station:SCCF:11:1,2019-02-12T12:00:00Z,26.4679,-82.0631,1.181,5.44,1111122 
SCCF RECON,ioos:station:SCCF:11:1,2019-02-12T13:00:00Z,26.4679,-82.0631,1.151,5.54,1111122 
SCCF RECON,ioos:station:SCCF:11:1,2019-02-12T14:00:00Z,26.4679,-82.0631,1.1,5.64,1111122 
SCCF RECON,ioos:station:SCCF:11:1,2019-02-12T15:00:00Z,26.4679,-82.0631,1.07,5.33,1111122 
SCCF RECON,ioos:station:SCCF:11:1,2019-02-12T16:00:00Z,26.4679,-82.0631,1.039,5.9,1111122 
SCCF RECON,ioos:station:SCCF:11:1,2019-02-12T17:00:00Z,26.4679,-82.0631,1.04,6.07,1111122 
SCCF RECON,ioos:station:SCCF:11:1,2019-02-12T18:00:00Z,26.4679,-82.0631,1.062,6.5,1111122 
SCCF RECON,ioos:station:SCCF:11:1,2019-02-12T19:00:00Z,26.4679,-82.0631,1.12,6.8,1111122 
SCCF RECON,ioos:station:SCCF:11:1,2019-02-12T20:00:00Z,26.4679,-82.0631,1.192,6.54,1111122 
SCCF RECON,ioos:station:SCCF:11:1,2019-02-12T21:00:00Z,26.4679,-82.0631,1.27,6.45,1111122 
SCCF RECON,ioos:station:SCCF:11:1,2019-02-12T22:00:00Z,26.4679,-82.0631,1.301,6.49,1111122 
SCCF RECON,ioos:station:SCCF:11:1,2019-02-12T23:00:00Z,26.4679,-82.0631,1.31,6.45,1111122 
SCCF RECON,ioos:station:SCCF:11:1,2019-02-13T05:00:00Z,26.4679,-82.0631,0.823,6.07,1111122 
SCCF RECON,ioos:station:SCCF:11:1,2019-02-13T06:00:00Z,26.4679,-82.0631,0.728,5.9,1111122 
SCCF RECON,ioos:station:SCCF:11:1,2019-02-13T07:00:00Z,26.4679,-82.0631,0.767,5.47,1111122 
SCCF RECON,ioos:station:SCCF:11:1,2019-02-13T08:00:00Z,26.4679,-82.0631,0.836,5.33,1111122 
SCCF RECON,ioos:station:SCCF:11:1,2019-02-13T09:00:00Z,26.4679,-82.0631,0.843,5.67,1111122 
SCCF RECON,ioos:station:SCCF:11:1,2019-02-13T10:00:00Z,26.4679,-82.0631,0.857,5.77,1111122 
SCCF RECON,ioos:station:SCCF:11:1,2019-02-13T11:00:00Z,26.4679,-82.0631,0.881,5.63,1111122 
SCCF RECON,ioos:station:SCCF:11:1,2019-02-13T12:00:00Z,26.4679,-82.0631,0.864,5.81,1111122 
SCCF RECON,ioos:station:SCCF:11:1,2019-02-13T13:00:00Z,26.4679,-82.0631,0.788,5.77,1111122 
SCCF RECON,ioos:station:SCCF:11:1,2019-02-13T14:00:00Z,26.4679,-82.0631,0.819,5.57,1111122 
SCCF RECON,ioos:station:SCCF:11:1,2019-02-13T15:00:00Z,26.4679,-82.0631,0.791,5.58,1111122 
SCCF RECON,ioos:station:SCCF:11:1,2019-02-13T16:00:00Z,26.4679,-82.0631,0.747,5.51,1111122 
SCCF RECON,ioos:station:SCCF:11:1,2019-02-13T17:00:00Z,26.4679,-82.0631,0.732,5.55,1111122 
SCCF RECON,ioos:station:SCCF:11:1,2019-02-13T18:00:00Z,26.4679,-82.0631,0.755,5.71,1111122 
SCCF RECON,ioos:station:SCCF:11:1,2019-02-13T19:00:00Z,26.4679,-82.0631,0.766,5.85,1111122 
SCCF RECON,ioos:station:SCCF:11:1,2019-02-13T20:00:00Z,26.4679,-82.0631,0.794,5.89,1111122 
SCCF RECON,ioos:station:SCCF:11:1,2019-02-13T21:00:00Z,26.4679,-82.0631,0.881,6.08,1111122 
SCCF RECON,ioos:station:SCCF:11:1,2019-02-14T21:00:00Z,26.4679,-82.0631,1.075,6.77,1111122 
SCCF RECON,ioos:station:SCCF:11:1,2019-02-14T22:00:00Z,26.4679,-82.0631,1.15,6.45,1111122 
SCCF RECON,ioos:station:SCCF:11:1,2019-02-14T23:00:00Z,26.4679,-82.0631,1.224,6.36,1111122 
SCCF RECON,ioos:station:SCCF:11:1,2019-02-15T05:00:00Z,26.4679,-82.0631,0.941,6.58,1111122 
SCCF RECON,ioos:station:SCCF:11:1,2019-02-15T06:00:00Z,26.4679,-82.0631,0.814,6.43,1111122 
SCCF RECON,ioos:station:SCCF:11:1,2019-02-15T07:00:00Z,26.4679,-82.0631,0.686,6.44,1111122 
SCCF RECON,ioos:station:SCCF:11:1,2019-02-15T08:00:00Z,26.4679,-82.0631,0.589,6.25,1111122 
SCCF RECON,ioos:station:SCCF:11:1,2019-02-15T09:00:00Z,26.4679,-82.0631,0.53,6.2,1111122 
SCCF RECON,ioos:station:SCCF:11:1,2019-02-15T10:00:00Z,26.4679,-82.0631,0.552,5.93,1111122 
SCCF RECON,ioos:station:SCCF:11:1,2019-02-15T11:00:00Z,26.4679,-82.0631,0.66,5.99,1111122 
SCCF RECON,ioos:station:SCCF:11:1,2019-02-15T12:00:00Z,26.4679,-82.0631,0.794,6.13,1111122 
SCCF RECON,ioos:station:SCCF:11:1,2019-02-15T13:00:00Z,26.4679,-82.0631,0.92,5.86,1111122 
SCCF RECON,ioos:station:SCCF:11:1,2019-02-15T14:00:00Z,26.4679,-82.0631,1.029,6.05,1111122 
SCCF RECON,ioos:station:SCCF:11:1,2019-02-15T15:00:00Z,26.4679,-82.0631,1.09,6.19,1111122 
SCCF RECON,ioos:station:SCCF:11:1,2019-02-15T16:00:00Z,26.4679,-82.0631,1.081,6.22,1111122 
SCCF RECON,ioos:station:SCCF:11:1,2019-02-15T17:00:00Z,26.4679,-82.0631,1.07,6.26,1111122 
SCCF RECON,ioos:station:SCCF:11:1,2019-02-15T18:00:00Z,26.4679,-82.0631,1.016,6.36,1111122 